{"data":{"norad_id":64799,"intl_designator":"2025-150K","name":"STARLINK-34662","alt_names":[],"object_type":"PAYLOAD","status":"ACTIVE","operator":null,"country":"US","launch_date":"2025-07-16","launch_site_code":"AFWTR","launch_vehicle":null,"mission":null,"orbit_class":"UNKNOWN","rcs_meters":null,"size_class":null,"mass_kg":null,"dimensions":null,"purposes":["comms"],"wikipedia_slug":null,"has_3d_model":false,"image_url":null,"decayed_at":null,"tle_current":{"epoch":"2026-09-20T13:55:49.882944Z","epoch_age_seconds":120982,"freshness":"FRESH","line1":"1 64799U 25150K   26263.58043846  .00002206  00000+0  19257-3 0  9991","line2":"2 64799  70.0046   2.9042 0002882 266.1380  93.9450 14.98336982 65719","mean_motion":14.98336982,"eccentricity":0.0002882,"inclination_deg":70.0046,"raan_deg":2.9042,"arg_perigee_deg":266.138,"mean_anomaly_deg":93.945,"bstar":0.00019257,"rev_number":6571,"period_min":96.106551283135,"perigee_km":570.03126040061,"apogee_km":574.0373391378,"semimajor_km":6950.1712997692,"source":"CELESTRAK","updated_at":"2026-09-21T09:00:35.444201Z"}}}